Location: St. Louis
(38.6270°N, 90.1994°W)
Time: 12:26:34
(UTC-06:00)

A-11 Canister half - Pass Details

Date: 15 December 2021
Orbit: 1524 x 1684 km, 47.3° (Epoch: 25 January)

Event Time Altitude Azimuth Distance (km) Brightness Sun altitude
Rises 03:14:36 0° 296° (WNW) 4,941 - -45.3°
Reaches altitude 10° 03:17:50 10° 299° (WNW) 3,950 - -44.7°
Maximum altitude 03:28:00 71° 23° (NNE) 1,749 - -42.7°
Exits shadow 03:29:15 65° 64° (ENE) 1,800 9.3 -42.5°
Drops below altitude 10° 03:37:55 10° 107° (ESE) 3,862 11.7 -40.8°
Sets 03:41:02 0° 110° (ESE) 4,826 12.4 -40.2°
